Regional Weather Roundup
Issued by NWS Albany, NY

Home | Current Version | Previous Version | Graphics & Text | Print | Product List | Glossary Off
Versions: 1 2 3 4 5 6 7 8 9 10 11 12 13 14 15 16 17 18 19 20 21 22 23 24 25 26 27 28 29 30 31 32 33 34 35 36 37 38 39 40 41 42 43 44 45 46 47 48 49 50

000
ASUS41 KALY 310110
RWRALY

NEW YORK STATE HOURLY WEATHER ROUNDUP
NATIONAL WEATHER SERVICE ALBANY NY
900 PM EDT SAT AUG 30 2014

NOTE: "FAIR" INDICATES FEW OR NO CLOUDS BELOW 12,000 FEET WITH NO
SIGNIFICANT WEATHER AND/OR NO OBSTRUCTIONS TO VISIBILITY.

NYZ032-033-038>043-046>054-057>066-NYZ062>081-310200-
EAST


CITY           SKY/WX    TMP DP  RH WIND       PRES   REMARKS
ALBANY         MOCLDY    73  60  63 S10       30.10R
GLENS FALLS    PTCLDY    69  60  73 SW7       30.08R
POUGHKEEPSIE   CLOUDY    74  63  68 S5        30.14R
NEWBURGH       CLOUDY    73  64  73 S5        30.17R
MONTGOMERY     CLOUDY    72  62  71 S3        30.15R
WHITE PLAINS   CLOUDY    71  65  81 VRB7      30.17R
ISLIP          CLOUDY    73  63  70 S9        30.17R
NEW YORK CITY  CLOUDY    74  65  73 S14       30.16R
CENTRAL PARK   CLOUDY    74  64  71 CALM      30.19R
$$

NYZ005>009-017-018-044>046-055-056-310200-
CENTRAL


CITY           SKY/WX    TMP DP  RH WIND       PRES   REMARKS
FULTON         MOCLDY    73  64  73 S9        30.00R
SYRACUSE       MOCLDY    74  64  71 SE9       30.01R
ROME           PTCLDY    71  64  78 SE7       30.06R
ELMIRA         CLOUDY    73  66  78 S6        30.08R
BINGHAMTON     CLOUDY    68  62  81 S9        30.13R
MONTICELLO     CLOUDY    66  63  88 S3        30.20R
$$

NYZ026>034-041>043-310200-
NORTH


CITY           SKY/WX    TMP DP  RH WIND       PRES   REMARKS
WATERTOWN      LGT RAIN  75  63  66 S9        29.97R
FORT DRUM      NOT AVBL
MASSENA        MOCLDY    70  64  81 S3        29.95S
SARANAC LAKE   MOCLDY    69  59  70 SW9       30.04S
PLATTSBURGH    PTCLDY    70  61  73 S6        29.99R
$$

NYZ001>004-010>016-019>021-310200-
WEST


CITY           SKY/WX    TMP DP  RH WIND       PRES   REMARKS
NIAGARA FALLS  CLOUDY    79  68  69 S9        29.93R
BUFFALO        CLOUDY    78  70  76 S8        29.95R
DUNKIRK        MOCLDY    80  67  64 S10       29.96R
JAMESTOWN      PTCLDY    75  66  73 S7        30.04R
WELLSVILLE     MOCLDY    71  65  81 S14G21    30.11R
ROCHESTER      MOCLDY    80  68  66 S8        29.96R
PENN YAN       MOCLDY    73  65  75 S14G21    30.05R
$$

             KEY
       WCI = WIND CHILL INDEX
       VSB = VISIBILITY
       HX  = HEAT INDEX
$$



USA.gov is the U.S. government's official web portal to all federal, state and local government web resources and services.